Location: Monrovia
(34.7865°N, 86.7139°W)
Time: 00:27:05
(UTC+00:00)

Cosmos 1263 - Pass Details

Date: 14 July 2020
Orbit: 384 x 1341 km, 82.9° (Epoch: 12 August)

Event Time Altitude Azimuth Distance (km) Brightness Sun altitude
Rises 09:05:49 0° 350° (N) 2,272 8.5 -17.4°
Reaches altitude 10° 09:07:44 10° 347° (NNW) 1,426 7.3 -17.1°
Maximum altitude 09:10:43 65° 265° (W) 455 4.1 -16.6°
Enters shadow 09:11:42 39° 198° (SSW) 649 4.7 -16.5°
